Wetbulb
63.00 65.77 74.15 73.97 72.80 71.92 71.07 70.82 70.51 69.84 69.38 68.92 68.57 67.84 67.62 67.21 66.77 66.15 65.17 64.77 64.66 64.88 65.14 65.27 65.31 66.17 67.17 67.62 67.76 68.76 69.52 70.64 72.58 73.16 73.55 74.44 74.34 74.90 74.69 75.19 75.12 74.10 75.32
63.46 66.62 74.13 74.05 73.00 72.48 72.00 71.61 71.37 71.20 70.45 69.24 68.46 68.51 68.55 68.07 67.78 67.36 66.84 66.14 65.72 65.83 66.05 66.10 65.99 66.11 67.38 68.45 68.27 68.08 68.97 69.62 71.64 72.81 73.34 73.51 74.12 73.86 74.90 74.64 74.84 74.50 75.05
63.58 67.02 72.16 73.70 73.43 72.94 72.68 72.38 71.93 71.62 70.82 69.84 69.22 68.98 69.01 69.05 68.67 68.16 68.03 67.69 67.15 66.98 67.18 67.13 67.03 66.90 66.76 69.06 69.58 68.10 68.63 69.17 70.62 72.29 72.99 71.69 71.89 73.56 74.40 74.58 74.64 74.92 74.50
65.17 68.18 70.78 73.55 73.30 73.15 72.95 72.93 72.59 71.54 70.61 70.13 69.93 70.09 70.07 70.07 69.42 68.44 68.27 68.49 68.25 68.08 68.35 68.24 68.18 68.00 66.95 67.97 69.90 69.87 68.53 68.86 69.42 71.72 70.70 70.67 70.98 73.34 73.84 74.66 74.36 73.66 74.42
65.47 68.10 69.66 73.65 73.43 73.53 73.23 73.11 72.78 71.82 71.25 71.09 70.99 70.87 70.34 70.25 69.82 69.02 68.71 68.37 68.80 69.09 68.72 68.50 68.60 68.40 68.29 67.36 69.26 70.14 69.19 69.24 69.02 70.07 69.45 69.71 69.78 72.41 73.30 74.18 74.32 74.80 75.02
64.57 66.98 70.14 73.72 73.62 73.83 73.75 73.40 73.00 72.02 71.42 71.22 71.22 71.22 70.22 69.92 69.78 69.89 69.07 68.79 68.86 68.88 68.78 68.63 68.39 69.06 68.62 68.35 69.18 69.36 69.80 69.80 69.31 67.49 68.19 69.68 69.42 72.16 73.10 73.55 73.95 74.25 74.51
64.11 66.66 69.34 73.74 73.82 73.92 73.93 73.33 73.05 72.58 72.41 72.36 71.47 71.10 70.32 69.85 69.49 68.87 68.54 68.53 68.76 68.67 68.29 68.30 68.35 68.74 68.99 69.02 69.56 68.94 69.29 69.60 66.93 66.18 67.32 68.26 69.02 71.88 73.17 73.78 73.35 73.62 74.34
65.11 65.94 68.71 73.40 73.76 73.59 73.80 73.35 73.17 72.89 72.78 72.35 71.38 70.64 69.67 69.06 68.64 68.44 68.02 67.83 67.66 67.98 68.07 68.21 68.51 69.22 69.18 68.75 68.79 69.02 69.05 69.63 67.81 66.02 67.12 67.52 69.32 71.81 73.04 73.25 73.37 73.20 73.62
65.37 66.80 68.81 70.73 72.30 73.82 73.37 73.49 73.27 73.08 72.49 71.16 70.17 69.19 67.87 67.00 66.57 66.55 66.58 66.87 67.06 67.30 67.47 67.65 67.68 68.38 68.87 68.27 68.46 68.51 68.51 69.39 66.08 65.12 66.89 67.40 70.25 71.99 72.65 72.56 72.61 72.63 72.93
64.25 65.93 65.41 65.86 67.92 68.12 68.66 72.31 72.17 71.94 70.65 70.00 68.41 66.99 66.58 66.30 66.33 66.36 66.31 65.90 66.38 66.19 66.52 66.74 67.05 68.01 68.44 68.29 68.19 68.26 68.44 68.99 65.75 65.30 65.92 67.40 70.85 72.08 72.66 72.44 72.46 72.12 72.41
59.27 58.70 60.75 62.23 63.99 64.83 65.28 66.95 70.43 69.69 69.01 68.15 66.81 66.85 66.28 62.84 61.89 63.41 64.02 64.74 65.44 66.19 66.86 66.86 66.52 67.59 67.69 67.18 67.35 67.83 67.85 64.92 65.12 65.33 66.34 69.74 71.26 72.06 72.36 72.19 71.18 70.87 72.03
54.63 54.91 58.65 59.80 60.42 60.59 62.00 60.56 61.29 63.32 62.88 62.66 63.14 62.05 61.66 60.56 59.59 61.20 62.49 64.59 65.16 65.71 66.48 66.67 66.74 67.05 66.84 63.08 64.11 66.86 63.54 63.96 64.81 64.83 67.23 70.16 71.03 71.70 72.24 72.23 71.62 71.34 71.46
53.87 54.59 56.24 57.52 57.86 58.40 59.72 59.14 59.51 59.74 59.02 59.66 61.17 61.16 59.43 58.89 58.56 59.46 58.55 59.04 59.31 62.29 61.21 62.43 63.23 63.35 63.27 62.11 61.81 61.34 62.61 63.46 63.72 65.39 67.94 70.46 71.01 71.74 71.77 72.11 71.57 71.13 70.72
53.58 55.60 56.94 57.57 58.15 58.34 59.01 59.20 58.47 58.60 58.66 59.19 59.80 59.81 58.31 57.91 57.91 57.87 58.09 58.57 58.39 58.79 58.96 59.50 60.48 61.39 61.57 61.43 61.20 60.51 61.55 62.99 62.81 65.08 67.27 69.96 70.74 71.05 71.71 71.73 71.45 70.51 70.34
53.70 55.68 56.56 58.09 58.18 58.89 59.46 58.82 58.54 58.45 59.71 59.20 58.91 59.15 58.99 58.21 57.81 58.09 58.49 58.35 57.69 57.43 57.63 58.57 59.41 60.52 60.97 60.77 60.59 59.88 60.52 62.35 63.20 65.62 66.46 69.72 70.71 70.70 70.95 71.46 71.35 70.51 70.43
54.93 56.23 58.11 58.44 58.88 59.65 59.00 58.43 58.54 58.50 59.03 59.73 59.49 59.73 60.15 58.85 58.21 58.43 59.67 57.73 57.43 57.53 57.45 58.13 58.93 59.15 59.48 59.57 59.70 59.82 60.40 61.90 62.87 63.97 66.07 66.45 70.20 70.24 70.64 71.10 71.35 70.78 70.42
56.78 58.22 58.11 58.20 59.45 59.35 58.45 58.25 58.02 59.02 60.02 59.61 59.81 60.07 60.25 59.60 58.65 58.57 57.81 57.19 57.39 57.77 57.48 57.51 58.27 58.57 58.03 58.92 58.83 59.14 60.32 61.51 62.66 63.93 64.66 65.93 67.00 70.38 70.05 70.51 70.58 70.36 70.13
57.06 57.27 57.76 60.78 58.69 57.60 58.05 58.56 59.36 59.68 59.51 59.59 60.01 60.43 61.14 61.10 59.67 57.98 57.19 56.85 57.99 57.89 57.17 56.75 57.03 57.23 57.51 57.77 57.79 58.13 59.71 61.24 62.86 63.73 64.80 65.66 66.00 66.77 69.28 70.31 69.86 69.88 69.54
57.05 56.65 57.33 57.60 57.69 57.93 57.92 57.60 58.48 59.09 59.46 60.17 59.89 59.95 60.40 61.11 60.30 57.95 57.63 57.91 58.38 57.57 56.68 56.91 56.24 56.82 56.66 58.97 58.23 58.13 58.49 59.97 62.34 65.17 65.28 65.27 65.23 66.02 67.13 69.34 69.83 69.57 69.16
56.42 57.06 56.96 57.15 58.36 57.71 57.34 58.19 58.48 58.48 59.51 60.01 59.95 59.93 60.64 60.69 60.29 58.14 58.47 58.43 58.03 56.72 55.94 56.28 55.86 57.05 58.70 59.49 59.62 57.97 58.17 58.97 62.92 63.60 63.88 64.89 65.21 65.84 65.80 66.71 67.47 67.45 68.86
56.38 56.32 56.07 56.93 57.30 56.71 57.94 57.18 57.46 57.68 58.24 58.72 59.65 60.15 61.91 60.93 59.27 57.58 58.05 58.09 57.61 56.44 56.02 56.52 56.02 56.80 58.43 57.75 57.67 55.64 58.77 58.62 60.91 62.76 63.78 63.90 64.51 65.37 65.75 65.75 66.68 66.77 66.96
56.08 55.88 56.21 56.57 56.80 57.90 58.20 57.70 58.68 58.02 58.51 59.01 58.83 59.66 61.13 61.91 60.62 59.18 58.77 58.13 57.15 56.02 55.98 56.00 56.13 55.48 57.73 58.74 55.28 54.28 52.86 55.54 58.81 61.97 64.44 64.29 64.27 64.40 64.67 65.66 66.09 65.98 66.23
55.38 56.42 56.55 56.59 57.75 59.23 58.78 58.26 57.82 57.36 58.02 57.93 57.48 58.36 59.36 60.85 62.28 60.34 59.28 58.41 56.85 56.26 55.56 55.64 56.25 56.30 56.36 56.04 56.30 55.15 52.25 50.91 57.97 61.05 62.19 64.01 64.12 63.63 64.35 64.28 64.96 65.35 65.72
55.22 56.95 56.56 57.96 58.75 58.77 58.92 57.59 55.94 55.20 55.10 56.30 56.77 57.47 57.93 60.32 61.43 60.74 59.67 58.22 57.23 56.64 56.14 56.10 57.35 56.88 56.50 55.32 56.87 59.70 56.98 59.16 54.13 55.76 60.43 62.08 63.26 62.95 63.01 63.46 63.60 64.10 65.07
55.42 55.95 57.02 58.01 58.69 58.54 58.40 57.50 56.26 55.01 56.00 56.38 56.14 56.80 56.72 58.94 59.84 60.55 58.65 57.78 57.06 56.85 56.44 57.20 56.44 56.72 56.60 56.44 56.87 56.93 58.23 58.73 58.95 57.91 55.70 58.07 61.55 62.72 62.65 63.01 63.01 63.24 64.18
54.83 56.07 57.01 58.28 58.20 58.37 58.23 57.28 56.22 55.51 54.78 54.10 55.01 55.84 57.15 58.09 58.63 58.89 59.27 57.62 57.50 56.96 56.64 57.17 56.94 56.60 57.36 57.18 57.68 57.98 57.57 57.11 56.06 56.24 56.91 57.33 57.85 60.45 61.93 62.63 62.39 62.95 63.79
MSLP
1009.58 1009.64 1010.18 1010.70 1011.16 1011.37 1011.55 1011.84 1012.11 1012.38 1012.66 1012.93 1013.04 1013.24 1013.42 1013.51 1013.66 1013.80 1013.80 1013.72 1013.75 1013.86 1013.78 1013.72 1013.69 1013.70 1013.66 1013.79 1013.87 1013.93 1013.96 1013.75 1013.67 1013.67 1013.66 1013.85 1014.06 1014.25 1014.36 1014.35 1014.48 1014.89 1015.04
1008.35 1009.36 1009.92 1010.52 1010.86 1011.01 1011.28 1011.58 1011.93 1012.25 1012.47 1012.84 1013.04 1013.09 1013.13 1013.46 1013.43 1013.57 1013.63 1013.69 1013.58 1013.80 1013.65 1013.62 1013.49 1013.55 1013.61 1013.53 1013.75 1013.88 1013.91 1013.87 1013.69 1013.69 1013.65 1013.79 1014.01 1014.28 1014.45 1014.48 1014.47 1014.84 1014.98
1008.37 1009.21 1009.84 1010.30 1010.59 1010.85 1011.17 1011.38 1011.72 1012.03 1012.21 1012.50 1012.82 1013.09 1013.11 1013.21 1013.23 1013.38 1013.50 1013.62 1013.62 1013.63 1013.64 1013.52 1013.57 1013.59 1013.55 1013.54 1013.54 1013.69 1013.79 1013.83 1013.75 1013.69 1013.56 1013.88 1014.00 1014.17 1014.30 1014.44 1014.60 1014.65 1015.04
1008.28 1008.91 1009.48 1009.86 1010.37 1010.75 1010.98 1011.27 1011.53 1011.76 1012.15 1012.33 1012.43 1012.60 1012.95 1012.82 1013.04 1013.15 1013.20 1013.23 1013.28 1013.32 1013.31 1013.47 1013.56 1013.59 1013.52 1013.37 1013.34 1013.46 1013.65 1013.68 1013.65 1013.64 1013.57 1013.75 1014.06 1014.21 1014.33 1014.40 1014.54 1014.69 1014.87
1008.15 1008.46 1008.99 1009.57 1010.02 1010.36 1010.70 1011.03 1011.28 1011.50 1011.68 1012.02 1012.19 1012.32 1012.64 1012.61 1012.73 1012.86 1012.98 1013.02 1013.04 1013.01 1012.95 1013.03 1013.16 1013.27 1013.29 1013.26 1013.27 1013.46 1013.47 1013.45 1013.48 1013.65 1013.65 1013.67 1013.95 1014.12 1014.24 1014.35 1014.45 1014.63 1014.89
1008.09 1008.37 1008.91 1009.30 1009.70 1009.97 1010.27 1010.71 1010.98 1011.32 1011.49 1011.61 1011.71 1011.99 1012.15 1012.28 1012.42 1012.51 1012.69 1012.83 1012.84 1012.85 1012.82 1012.85 1012.96 1012.97 1012.97 1013.00 1013.16 1013.30 1013.34 1013.31 1013.31 1013.64 1013.71 1013.67 1013.81 1013.88 1014.05 1014.29 1014.43 1014.61 1014.90
1007.96 1008.26 1008.63 1008.95 1009.36 1009.63 1009.91 1010.18 1010.50 1010.83 1011.03 1011.44 1011.42 1011.58 1011.78 1011.89 1012.06 1012.15 1012.29 1012.47 1012.60 1012.61 1012.61 1012.59 1012.59 1012.69 1012.76 1012.87 1012.99 1013.21 1013.23 1013.14 1013.26 1013.40 1013.52 1013.69 1013.73 1013.79 1013.97 1014.24 1014.35 1014.52 1014.81
1007.63 1008.15 1008.51 1008.78 1009.18 1009.56 1009.86 1010.17 1010.64 1010.78 1010.81 1010.92 1011.12 1011.19 1011.51 1011.58 1011.81 1011.91 1012.03 1012.09 1012.16 1012.20 1012.24 1012.32 1012.30 1012.28 1012.50 1012.71 1012.80 1012.96 1013.07 1013.06 1013.07 1013.25 1013.40 1013.52 1013.62 1013.56 1013.62 1014.06 1014.50 1014.66 1014.80
1007.88 1008.23 1008.50 1008.77 1009.09 1009.34 1009.70 1010.03 1010.22 1010.69 1010.98 1010.79 1010.84 1010.98 1011.29 1011.43 1011.60 1011.78 1011.92 1011.89 1011.87 1011.95 1011.99 1012.05 1011.97 1012.02 1012.14 1012.41 1012.57 1012.74 1012.88 1012.88 1012.98 1013.20 1013.18 1013.33 1013.37 1013.37 1013.44 1013.99 1014.43 1014.62 1014.89
1008.00 1008.23 1008.43 1008.69 1009.04 1009.27 1009.62 1009.83 1010.02 1010.39 1010.56 1010.71 1010.75 1010.77 1011.09 1011.25 1011.39 1011.52 1011.65 1011.73 1011.67 1011.48 1011.58 1011.56 1011.50 1011.64 1011.77 1012.06 1012.34 1012.53 1012.65 1012.73 1012.91 1013.01 1013.01 1013.10 1013.12 1013.23 1013.39 1013.82 1014.30 1014.75 1014.77
1008.18 1008.25 1008.47 1008.76 1008.95 1009.17 1009.42 1009.80 1009.87 1010.11 1010.20 1010.50 1010.57 1010.57 1010.80 1011.09 1011.32 1011.43 1011.53 1011.44 1011.45 1011.43 1011.25 1011.14 1011.15 1011.17 1011.43 1011.80 1012.01 1012.25 1012.42 1012.72 1012.78 1012.83 1012.91 1012.88 1012.99 1013.14 1013.32 1013.80 1014.53 1014.78 1014.88
1008.12 1008.33 1008.45 1008.60 1008.90 1009.02 1009.24 1009.57 1009.79 1010.04 1010.13 1010.33 1010.43 1010.48 1010.67 1010.85 1011.06 1011.20 1011.31 1011.20 1011.06 1010.98 1010.83 1010.70 1010.67 1010.79 1011.03 1011.51 1011.72 1011.92 1012.28 1012.58 1012.66 1012.60 1012.74 1012.67 1012.70 1012.93 1013.20 1013.93 1014.22 1014.56 1015.28
1007.03 1007.57 1008.18 1008.60 1008.76 1008.85 1009.18 1009.54 1009.84 1009.98 1010.12 1010.23 1010.15 1010.17 1010.41 1010.73 1010.92 1010.95 1011.05 1011.09 1011.15 1010.97 1010.98 1010.75 1010.52 1010.64 1011.04 1011.44 1011.74 1011.97 1012.23 1012.43 1012.55 1012.49 1012.51 1012.29 1012.51 1012.70 1013.13 1013.51 1013.91 1014.64 1015.17
1006.73 1007.18 1007.61 1008.11 1008.46 1008.96 1009.04 1009.65 1009.79 1009.96 1009.78 1009.77 1009.69 1009.90 1010.31 1010.60 1010.69 1010.77 1010.81 1010.75 1010.86 1010.82 1010.75 1010.66 1010.63 1010.71 1010.94 1011.33 1011.60 1011.83 1012.09 1012.25 1012.37 1012.35 1012.40 1012.02 1012.30 1012.64 1012.98 1013.28 1013.92 1014.58 1015.04
1006.61 1007.07 1007.49 1007.77 1008.01 1008.75 1009.22 1009.57 1009.70 1009.64 1009.54 1009.42 1009.56 1009.69 1009.97 1010.27 1010.31 1010.37 1010.44 1010.34 1010.50 1010.57 1010.68 1010.77 1010.72 1010.81 1011.11 1011.34 1011.60 1011.75 1011.97 1012.03 1012.16 1012.26 1012.23 1012.09 1012.16 1012.49 1012.94 1013.28 1013.68 1014.37 1014.91
1005.97 1006.66 1007.25 1007.72 1007.96 1008.75 1009.07 1009.44 1009.20 1009.17 1009.01 1009.10 1009.13 1009.24 1009.40 1009.61 1009.91 1010.02 1010.04 1010.16 1010.30 1010.22 1010.37 1010.53 1010.61 1010.76 1011.00 1011.37 1011.59 1011.66 1011.78 1011.80 1011.92 1012.01 1012.06 1012.08 1012.06 1012.33 1012.63 1013.12 1013.46 1014.20 1014.80
1005.51 1006.50 1007.19 1007.61 1008.11 1008.53 1008.86 1009.02 1008.98 1008.74 1008.62 1008.77 1008.69 1008.82 1008.94 1009.05 1009.21 1009.48 1009.63 1009.76 1009.91 1010.03 1010.20 1010.38 1010.57 1010.76 1011.11 1011.33 1011.45 1011.58 1011.69 1011.67 1011.74 1011.72 1011.91 1011.95 1011.93 1012.14 1012.37 1013.13 1013.42 1014.32 1014.93
1006.00 1006.88 1007.23 1007.41 1008.15 1008.35 1008.64 1008.59 1008.69 1008.43 1008.38 1008.34 1008.31 1008.45 1008.54 1008.53 1008.67 1009.05 1009.36 1009.46 1009.57 1009.84 1010.06 1010.26 1010.45 1010.78 1010.97 1011.25 1011.45 1011.46 1011.54 1011.64 1011.52 1011.55 1011.70 1011.85 1011.91 1012.07 1012.49 1012.93 1013.58 1014.17 1014.84
1005.90 1006.78 1007.35 1007.54 1007.88 1008.13 1008.33 1008.34 1008.42 1008.23 1008.14 1007.99 1008.01 1008.13 1008.14 1008.16 1008.32 1008.81 1009.05 1009.17 1009.25 1009.56 1009.77 1010.00 1010.29 1010.51 1010.95 1011.17 1011.35 1011.36 1011.50 1011.48 1011.46 1011.53 1011.71 1011.82 1011.99 1012.12 1012.52 1012.89 1013.55 1014.18 1014.84
1006.03 1006.58 1007.10 1007.49 1007.66 1008.08 1008.05 1008.24 1008.24 1008.13 1007.92 1007.82 1007.93 1008.02 1007.87 1007.88 1008.04 1008.54 1008.74 1008.94 1009.12 1009.35 1009.58 1009.84 1010.14 1010.48 1010.71 1010.97 1011.32 1011.53 1011.57 1011.53 1011.58 1011.65 1011.76 1011.79 1011.88 1012.23 1012.49 1012.85 1013.72 1014.47 1015.04
1006.11 1006.71 1007.05 1007.52 1007.76 1008.04 1008.18 1008.30 1008.22 1008.08 1007.86 1007.74 1007.76 1007.79 1007.67 1007.76 1007.91 1008.28 1008.52 1008.73 1008.89 1009.14 1009.27 1009.69 1010.09 1010.49 1010.75 1011.01 1011.36 1011.68 1011.91 1011.77 1011.76 1011.92 1012.03 1012.26 1012.52 1012.69 1012.84 1013.29 1014.11 1014.80 1015.21
1006.06 1006.67 1006.98 1007.36 1007.76 1007.78 1007.89 1007.93 1007.95 1007.94 1007.72 1007.67 1007.64 1007.66 1007.53 1007.54 1007.61 1007.86 1008.14 1008.48 1008.69 1008.93 1009.23 1009.64 1009.85 1010.47 1010.78 1010.99 1011.32 1011.71 1012.29 1012.37 1012.17 1012.14 1012.28 1012.56 1012.88 1013.14 1013.34 1013.63 1013.93 1014.81 1015.23
1006.23 1006.42 1006.86 1007.32 1007.55 1007.54 1007.62 1007.75 1007.89 1007.78 1007.72 1007.77 1007.79 1007.59 1007.48 1007.40 1007.44 1007.62 1007.85 1008.13 1008.40 1008.74 1009.12 1009.40 1009.78 1010.09 1010.50 1011.02 1011.27 1011.38 1011.91 1012.25 1012.51 1012.64 1012.74 1012.75 1013.00 1013.33 1013.39 1013.61 1013.87 1014.49 1015.30
1005.89 1006.28 1006.88 1007.27 1007.39 1007.44 1007.53 1007.81 1007.97 1008.11 1008.15 1008.11 1007.97 1007.65 1007.53 1007.33 1007.31 1007.50 1007.59 1007.87 1008.19 1008.51 1008.87 1009.18 1009.55 1009.86 1010.05 1010.70 1011.31 1011.13 1011.01 1011.24 1012.21 1012.89 1013.01 1013.11 1013.18 1013.35 1013.35 1013.98 1014.32 1014.91 1015.08
1005.88 1006.43 1006.89 1007.21 1007.38 1007.43 1007.59 1007.79 1007.89 1007.99 1008.03 1008.15 1007.98 1007.70 1007.62 1007.44 1007.40 1007.49 1007.56 1007.79 1008.04 1008.37 1008.71 1009.06 1009.43 1009.61 1009.73 1010.24 1010.60 1010.79 1011.11 1011.30 1011.56 1012.35 1013.15 1013.39 1013.41 1013.54 1013.89 1014.32 1014.80 1014.89 1015.44
1006.08 1006.59 1006.94 1007.25 1007.42 1007.53 1007.66 1007.74 1007.82 1007.91 1008.03 1008.14 1007.96 1007.73 1007.73 1007.55 1007.52 1007.58 1007.57 1007.81 1007.98 1008.24 1008.65 1009.03 1009.14 1009.30 1009.52 1009.75 1010.15 1010.40 1010.73 1011.28 1011.93 1012.25 1013.34 1013.69 1013.67 1013.68 1014.22 1014.69 1015.21 1015.69 1016.28
Wind_Speed
14 10 21 19 19 18 18 17 16 15 14 13 12 11 10 9 8 7 5 3 4 4 5 5 4 6 6 6 6 7 7 7 8 8 7 10 10 12 12 15 16 12 16
15 13 21 20 20 19 18 16 16 14 14 13 13 12 11 11 10 8 7 7 6 7 6 6 6 6 7 7 6 7 7 7 7 8 7 9 11 14 15 17 18 13 17
14 13 17 21 21 18 17 16 15 14 13 13 12 11 10 11 11 10 10 9 8 8 8 7 7 8 9 8 8 7 8 7 8 8 8 4 5 14 16 17 18 19 17
13 13 15 22 19 17 16 15 14 14 14 14 13 12 12 12 11 11 11 11 11 10 9 9 9 9 9 10 9 9 8 7 8 9 4 4 4 13 16 18 19 19 18
13 14 15 21 19 18 17 16 15 15 15 15 14 14 14 13 14 13 13 13 13 13 12 13 11 11 10 11 10 8 9 8 8 7 4 4 4 9 16 18 19 19 18
11 12 14 19 20 20 19 17 16 16 16 15 15 15 14 14 14 13 15 15 16 15 15 14 15 12 12 12 11 10 9 9 8 3 4 5 5 10 17 19 20 21 18
8 9 12 20 20 20 19 18 17 17 15 15 16 14 14 14 14 14 15 16 16 17 17 17 17 15 14 13 11 10 9 9 5 3 4 5 5 12 16 18 20 19 18
13 9 9 19 19 18 17 16 16 15 15 15 14 13 12 12 13 13 15 16 17 18 18 18 17 15 13 14 12 11 10 10 6 4 4 4 9 14 18 18 18 19 18
7 10 8 10 14 17 15 14 13 13 14 14 13 12 12 12 12 13 15 16 17 18 18 19 18 16 13 15 14 13 10 11 5 4 4 4 11 15 20 19 19 19 18
5 7 7 7 7 6 6 12 13 16 14 14 12 11 11 11 11 12 12 13 16 18 18 18 19 19 16 14 14 14 11 12 4 5 4 4 12 14 20 20 19 17 18
4 5 6 7 6 7 6 7 11 13 13 12 11 11 8 4 5 7 8 11 14 16 16 19 19 18 15 15 16 15 12 3 4 4 3 10 14 16 19 19 18 20 15
7 6 7 7 7 7 5 5 4 5 3 4 5 6 4 5 5 5 8 12 13 15 16 14 16 16 14 4 5 13 3 4 4 3 3 13 14 18 20 24 25 18 17
10 7 8 7 7 8 5 3 1 2 3 4 7 6 5 3 4 3 3 3 3 8 3 5 5 3 4 4 4 3 3 4 3 3 7 14 14 18 22 23 25 25 20
10 9 9 9 8 6 4 4 5 4 3 3 4 5 4 3 4 4 3 4 3 3 4 3 2 3 5 5 5 5 5 4 3 2 7 15 13 17 20 23 24 22 20
10 11 11 9 8 6 6 4 5 5 4 5 4 5 4 4 4 4 4 3 3 2 3 4 3 3 4 4 4 4 5 5 5 4 4 14 13 16 20 23 24 24 21
12 13 10 9 7 7 6 7 5 4 4 4 4 4 6 4 4 4 4 4 4 3 3 3 4 4 4 4 4 5 5 5 5 5 5 5 14 15 19 22 24 22 22
11 11 11 8 7 7 6 6 4 4 4 4 4 5 6 5 6 5 4 4 4 3 5 3 3 3 3 2 4 5 4 5 5 6 4 3 6 15 17 20 21 21 22
10 10 7 7 8 7 6 4 4 3 3 3 3 3 5 5 6 4 4 4 4 4 4 3 3 3 3 3 2 4 4 4 5 5 4 3 3 4 12 18 20 22 23
12 9 8 8 8 7 5 3 3 3 3 3 3 3 5 5 4 4 4 4 4 3 4 3 2 3 2 2 3 4 2 3 4 4 5 5 5 5 4 17 20 21 22
10 9 8 6 7 5 2 1 1 2 3 2 3 4 4 3 4 4 4 4 4 3 3 3 3 2 2 3 2 2 1 1 3 5 5 3 3 5 6 7 9 10 19
8 9 8 8 5 3 1 1 1 2 2 2 3 5 4 4 4 5 4 3 4 4 5 5 3 4 2 2 3 3 3 2 3 4 3 3 4 4 5 6 7 6 12
11 8 8 7 6 3 2 2 1 1 2 3 2 3 4 4 5 5 5 4 5 3 5 5 4 3 2 3 3 3 2 3 3 2 3 3 5 4 6 9 10 10 8
9 9 8 7 7 4 3 2 1 1 2 3 2 1 2 3 4 5 5 5 5 4 4 5 5 5 4 1 3 4 3 2 3 2 2 3 6 5 6 7 8 9 9
8 7 8 7 7 4 4 3 2 1 0 2 2 1 3 4 3 4 5 5 5 4 5 5 4 4 4 4 2 2 1 4 4 3 0 2 5 7 8 6 6 7 14
8 8 7 7 5 4 3 4 3 1 0 2 2 3 3 3 2 3 4 6 5 4 5 5 5 5 3 4 3 2 3 3 3 4 3 1 3 6 7 7 7 7 9
6 7 7 7 5 5 4 4 4 3 0 2 2 2 3 2 1 2 3 4 4 4 5 5 5 5 5 5 3 3 3 4 4 4 4 3 3 4 8 8 8 7 7
Wind_Direction
208 172 181 179 179 176 172 174 176 178 178 178 179 183 185 185 187 194 201 220 246 253 256 268 268 283 286 291 300 298 301 316 326 320 251 215 187 169 162 152 143 140 137
166 169 178 180 185 182 179 179 182 185 184 190 197 201 200 202 201 207 213 219 231 256 266 266 268 267 272 275 278 282 282 296 313 320 248 222 201 186 171 160 148 148 143
156 163 176 184 191 185 182 183 186 191 192 198 205 214 216 217 217 223 225 227 231 241 251 265 264 265 263 269 256 260 271 278 297 311 257 225 188 181 180 168 156 150 151
151 163 176 190 189 186 186 188 191 196 204 209 211 216 229 228 234 243 245 243 243 246 247 251 258 260 258 261 276 252 249 262 280 304 280 213 217 192 187 176 166 162 159
161 168 182 185 185 189 191 192 195 201 206 216 220 223 230 232 231 238 247 251 250 246 252 263 249 251 257 254 260 269 244 242 256 290 284 217 182 201 191 188 175 167 160
165 174 179 183 188 192 192 194 197 206 214 220 225 226 232 240 239 240 242 248 250 252 254 255 264 256 250 251 249 257 256 242 238 275 276 237 182 208 196 193 179 169 161
167 171 178 186 191 193 195 195 198 206 214 224 225 230 238 242 246 243 246 250 247 250 253 253 251 249 243 245 241 247 248 233 230 242 265 245 203 212 194 193 182 170 165
169 171 179 189 191 195 197 198 204 212 217 219 220 224 237 246 257 259 258 256 255 256 256 255 254 250 246 244 242 232 238 234 237 217 247 236 225 210 198 195 184 170 165
165 169 177 185 194 195 197 203 203 215 215 214 214 214 226 238 250 257 259 262 263 262 260 257 257 255 253 241 232 235 234 231 204 225 244 232 234 219 201 191 182 174 168
166 175 164 158 171 173 181 203 204 211 215 219 219 217 224 231 240 248 254 265 267 265 264 261 252 250 246 238 230 228 230 233 215 221 239 228 235 214 197 189 180 176 175
171 168 163 155 163 174 180 210 212 224 225 226 226 225 221 215 236 252 258 261 260 261 262 253 252 249 241 231 223 222 227 218 219 218 226 240 231 212 198 184 173 185 187
196 192 181 170 177 170 181 188 230 233 228 229 219 208 218 224 220 224 242 252 258 261 269 279 244 248 238 189 211 217 193 212 217 212 225 242 230 212 192 179 171 176 182
193 175 174 175 173 158 151 167 207 210 217 219 211 204 208 222 228 238 248 255 269 268 264 285 272 219 172 177 194 197 209 215 221 207 237 240 224 204 191 178 174 175 168
177 170 164 168 158 168 153 172 192 197 200 208 209 209 197 217 223 232 234 233 243 259 272 273 250 191 170 186 194 196 216 221 213 210 238 251 210 204 189 180 172 176 175
173 171 173 163 157 169 180 192 199 194 196 208 212 221 199 208 221 221 232 231 247 249 239 251 234 183 180 182 201 196 223 224 212 208 233 245 218 206 197 187 180 181 178
167 170 165 170 160 169 186 205 206 205 216 209 215 220 208 209 216 218 210 222 237 217 246 233 211 187 193 175 198 216 229 226 217 203 226 235 222 205 197 186 179 176 174
166 157 166 165 170 177 195 208 212 222 212 226 230 233 227 213 216 216 204 221 228 219 227 224 213 167 173 180 216 226 231 228 222 204 207 219 209 192 189 187 186 181 162
137 159 159 156 173 180 191 193 219 218 220 232 229 236 233 222 206 196 210 225 219 214 199 192 175 181 189 185 211 239 233 225 214 191 189 183 171 150 191 187 184 170 162
153 150 161 153 166 171 187 191 225 225 220 233 228 235 247 228 197 187 210 225 212 207 197 176 154 154 162 178 204 238 228 216 194 178 191 167 158 144 156 180 169 168 171
147 150 145 155 156 161 128 179 280 251 251 237 233 239 246 226 206 201 220 229 205 181 185 160 137 132 150 159 183 120 70 133 166 189 173 133 148 144 163 161 152 168 173
145 143 149 147 157 146 127 199 268 268 278 268 235 249 245 223 209 207 220 212 186 188 183 161 132 150 126 135 115 51 46 100 135 158 168 146 130 122 145 133 142 149 160
151 153 146 150 162 160 155 207 198 237 279 267 269 279 248 226 213 204 204 199 190 171 154 158 142 116 124 181 127 102 97 6 28 92 135 151 142 155 147 149 144 148 155
151 155 150 158 160 156 176 108 5 350 349 3 331 297 323 269 229 204 197 191 184 166 163 166 159 150 129 147 232 145 120 155 108 35 161 160 151 150 133 116 134 142 173
157 137 145 152 154 167 152 101 113 152 354 260 271 304 321 319 213 194 191 168 173 159 163 168 152 172 135 141 132 198 88 142 150 126 77 166 140 154 124 113 114 122 150
140 149 150 151 167 152 143 134 118 99 245 299 315 327 322 308 269 184 154 147 164 166 171 159 165 168 150 137 155 157 98 67 95 114 105 123 149 145 119 125 124 101 107
133 137 145 155 168 170 160 144 128 119 78 327 340 345 336 321 290 157 136 156 163 164 165 163 187 168 158 129 141 154 150 145 155 128 109 53 119 125 130 127 129 123 115